SVYATOBOR 1 (RS60S)

Last updated on Thu Sep 10 2026 00:03:13 GMT+0000 (Coordinated Universal Time)

1 57187U 23091X 26252.57886051 .00006958 00000+0 25835-3 0 9993 2 57187 97.5016 316.9008 0009992 147.3833 212.8025 15.27848032177198
UTC large
Height (km)
Speed (km/s)
/
Latitude / Longitude
Inclination (degrees)
Orbital Period (minutes)
Azimuth
Elevation
Range (km)
Doppler Factor

Next 0 passes for location: London (51.5072 / 0.1276)

No passes found over London.
SVYATOBOR 1 (RS60S)